Home   Weather   Ludwigsfelde   Past weeks

Flag for Germany Past Weather in Ludwigsfelde, Brandenburg, Germany — Yesterday and Last 2 Weeks

Now
37 °F

Clear.


Feels Like: 33 °F
Forecast: 35 / 51 °F
Wind: 6 mph from West

Location: Berlin-Schoenefeld

Current Time: Apr 26, 2017 at 12:26:28 am

Latest Report: Apr 25, 2017 at 11:50 pm


Visibility: 10 mi

Pressure: 29.80 "Hg

Humidity: 81%

Dew Point: 32 °F

Location of LudwigsfeldeLocation

Past Weather in Ludwigsfelde — Graph

°F

Ludwigsfelde Temperature Yesterday

Maximum temperature yesterday: 54 °F (at 3:50 pm)
Minimum temperature yesterday: 39 °F (at 11:20 pm)
Average temperature yesterday: 46 °F

High & Low Weather Summary for the Past Weeks

 TemperatureHumidityPressure
High59 °F (Apr 21, 2:50 pm)100% (Apr 17, 12:20 am)30.57 "Hg (Apr 17, 12:20 am)
Low28 °F (Apr 20, 4:20 am)34% (Apr 20, 2:20 pm)29.56 "Hg (Apr 25, 5:50 am)
Average44 °F71%30.04 "Hg
* Reported Apr 10 11:20 pm — Apr 25 11:20 pm, Ludwigsfelde, Weather by CustomWeather, © 2017

Note: Actual official high and low records may vary slightly from our data, if they occured in-between our weather recording intervals... More about our weather records

Advertising

Ludwigsfelde Weather History for the Previous 24 Hours

Scroll right to see more
 ConditionsComfort  
Time TempWeatherWind HumidityBarometerVisibility
11:20 pm
Tue, Apr 25
39 °FClear.7 mph75%29.77 "Hg10 mi
10:50 pm41 °FClear.7 mph70%29.77 "Hg10 mi
10:20 pm41 °FClear.9 mph70%29.77 "Hg10 mi
9:50 pm41 °FClear.8 mph66%29.77 "Hg10 mi
9:20 pm43 °FClear.10 mph61%29.74 "Hg10 mi
8:50 pm45 °FClear.9 mph57%29.74 "Hg10 mi
8:20 pm45 °FClear.12 mph57%29.74 "Hg10 mi
7:50 pm46 °FSunny.15 mph53%29.71 "Hg10 mi
7:20 pm48 °FSunny.17 mph50%29.71 "Hg10 mi
6:50 pm48 °FSunny.18 mph54%29.71 "Hg10 mi
6:20 pm50 °FSunny.20 mph50%29.68 "Hg10 mi
5:50 pm50 °FScattered showers. Partly sunny.22 mph40%29.68 "HgN/A
4:50 pm52 °FSunny.18 mph44%29.68 "Hg10 mi
4:20 pm52 °FScattered clouds.13 mph38%29.65 "HgN/A
3:50 pm54 °FScattered clouds.13 mph51%29.65 "HgN/A
3:20 pm50 °FScattered clouds.15 mph67%29.65 "HgN/A
2:50 pm46 °FPartly sunny.14 mph71%29.68 "HgN/A
2:20 pm46 °FLight rain. Partly sunny.18 mph76%29.68 "HgN/A
1:50 pm48 °FLight rain. Mostly cloudy.13 mph66%29.65 "HgN/A
1:20 pm48 °FLight rain. Broken clouds.15 mph66%29.65 "HgN/A
12:50 pm46 °FLight rain. Broken clouds.15 mph71%29.65 "HgN/A
12:20 pm46 °FBroken clouds.17 mph76%29.65 "HgN/A
11:50 am45 °FPartly sunny.13 mph81%29.65 "HgN/A
11:20 am45 °FDrizzle. Broken clouds.16 mph81%29.62 "HgN/A
10:50 am45 °FDrizzle. Partly sunny.15 mph87%29.62 "HgN/A
10:20 am45 °FDrizzle. Partly sunny.17 mph81%29.59 "HgN/A
9:50 am46 °FLight rain. Partly sunny.18 mph82%29.59 "HgN/A
9:20 am52 °FLight rain. Mostly cloudy.17 mph72%29.56 "HgN/A
8:50 am50 °FSunny.9 mph71%29.56 "Hg10 mi
8:20 am46 °FPartly sunny.7 mph71%29.56 "HgN/A
7:50 am46 °FPassing clouds.6 mph71%29.56 "HgN/A
7:20 am46 °FPassing clouds.3 mph71%29.56 "HgN/A
6:50 am45 °FSunny.1 mph81%29.56 "Hg10 mi
5:50 am45 °FSunny.1 mph81%29.56 "Hg10 mi
4:50 am45 °FClear.3 mph81%29.59 "Hg10 mi
4:20 am45 °FClear.3 mph81%29.59 "Hg10 mi
3:50 am46 °FClear.2 mph76%29.62 "Hg10 mi
3:20 am45 °FClear.3 mph81%29.62 "Hg10 mi
2:50 am45 °FClear.3 mph81%29.65 "Hg10 mi
2:20 am46 °FClear.2 mph76%29.65 "Hg10 mi
1:50 am46 °FPassing clouds.3 mph76%29.68 "HgN/A
12:50 am48 °FPassing clouds.3 mph71%29.71 "HgN/A
12:20 am48 °FClear.5 mph71%29.71 "Hg10 mi
Weather by CustomWeather, © 2017

See weather overviewHow to use our weather pages